User: anonymous   Login
Location: Albany
(35.0000°S, 118.0000°E)
Time: 18:24:38
(UTC-05:00)
Language:

JAS-1B - Orbit

View from above orbital plane
View from above orbital plane
View from above satellite
View from above satellite

Ground track
Ground track

The orbit data is extracted from the following two-line orbital elements,

1 20480U 90013C   14356.07704030  .00000008  00000-0  99081-4 0  9312
2 20480 099.0709 284.0783 0539408 288.3811 134.8324 12.83401068165237
Epoch (UTC): 22 December 2014 01:50:56
Eccentricity: 0.0539408
inclination: 99.0709°
perigee height: 912 km
apogee height: 1743 km
right ascension of ascending node: 284.0783°
argument of perigee: 288.3811°
revolutions per day: 12.83401068
mean anomaly at epoch: 134.8324°
orbit number at epoch: 16523

The dashed part of the orbit path shows where the satellite is in the earth's shadow,  

DLR